This is the latest recevied weather packets stored in our database for station/object KE0FIN. If no packets are shown the sender has not sent any weather packets the latest 10 day(s).
| Time | Temp. | Humidity | Pressure | Rain* | Wind** | Luminosity | Snow |
|---|---|---|---|---|---|---|---|
| 1777842933 | 30° C | 21% | 1060.7 hPa | 0 mm | - | 366 W/m² | - |
| 1777842628 | 29.44° C | 21% | 1060.9 hPa | 0 mm | - | 376 W/m² | - |
| 1777842325 | 29.44° C | 20% | 1060.8 hPa | 0 mm | - | 272 W/m² | - |
| 1777842021 | 29.44° C | 20% | 1061.1 hPa | 0 mm | - | 204 W/m² | - |
| 1777841718 | 30° C | 19% | 1061 hPa | 0 mm | - | 281 W/m² | - |
| 1777841414 | 29.44° C | 20% | 1061 hPa | 0 mm | - | 307 W/m² | - |
| 1777841111 | 29.44° C | 20% | 1061.2 hPa | 0 mm | - | 359 W/m² | - |
| 1777840808 | 29.44° C | 21% | 1061.2 hPa | 0 mm | - | 349 W/m² | - |
| 1777840505 | 29.44° C | 20% | 1061.5 hPa | 0 mm | - | 394 W/m² | - |
| 1777840202 | 29.44° C | 21% | 1061.6 hPa | 0 mm | - | 260 W/m² | - |
| 1777839900 | 29.44° C | 20% | 1061.7 hPa | 0 mm | - | 263 W/m² | - |
| 1777839598 | 29.44° C | 20% | 1062 hPa | 0 mm | - | 255 W/m² | - |
| 1777839296 | 29.44° C | 20% | 1062.1 hPa | 0 mm | - | 324 W/m² | - |
| 1777838993 | 30° C | 19% | 1062 hPa | 0 mm | - | 409 W/m² | - |
| 1777838689 | 30° C | 19% | 1062.2 hPa | 0 mm | - | 537 W/m² | - |
| 1777838386 | 30° C | 19% | 1062.3 hPa | 0 mm | - | 485 W/m² | - |
| 1777838083 | 30° C | 19% | 1062.1 hPa | 0 mm | - | 508 W/m² | - |
| 1777837779 | 30° C | 18% | 1062.2 hPa | 0 mm | - | 568 W/m² | - |
| 1777837477 | 30.56° C | 18% | 1062.3 hPa | 0 mm | - | 622 W/m² | - |
| 1777837172 | 30.56° C | 17% | 1062.2 hPa | 0 mm | - | 691 W/m² | - |
| 1777836867 | 30° C | 19% | 1062.3 hPa | 0 mm | - | 672 W/m² | - |
| 1777836563 | 30.56° C | 20% | 1062.2 hPa | 0 mm | - | 698 W/m² | - |
| 1777836260 | 30.56° C | 20% | 1062.4 hPa | 0 mm | - | 692 W/m² | - |
| 1777835956 | 30.56° C | 21% | 1062.4 hPa | 0 mm | - | 689 W/m² | - |
| 1777835654 | 30° C | 19% | 1062.5 hPa | 0 mm | - | 705 W/m² | - |
* Rain latest hour (hover to see other rain measurements)
** Current wind speed in m/s (hover to see current wind gust speed)